FOX-1A (AO-85)

Last updated on Mon Sep 21 2026 00:03:14 GMT+0000 (Coordinated Universal Time)

1 40967U 15058D 26263.44952466 .00001026 00000+0 10059-3 0 9990 2 40967 64.7756 342.8198 0138859 21.0033 339.6704 14.91403268127775
UTC large
Height (km)
Speed (km/s)
/
Latitude / Longitude
Inclination (degrees)
Orbital Period (minutes)
Azimuth
Elevation
Range (km)
Doppler Factor

Next 0 passes for location: London (51.5072 / 0.1276)

No passes found over London.
FOX-1A (AO-85)